Regional Weather Roundup
Issued by NWS

Home | Current Version | Previous Version | Text Only | Print | Product List | Glossary On
Versions: 1 2 3 4 5 6 7 8 9 10 11 12 13 14 15 16 17 18 19 20 21 22 23 24 25 26 27 28 29 30 31 32 33 34 35 36 37 38 39 40 41 42 43 44 45 46 47 48 49 50
000
ASUS43 KTOP 060608
RWRKS

WEATHER ROUNDUP FOR KANSAS
NATIONAL WEATHER SERVICE GOODLAND KS
1200 AM CST FRI MAR 06 2015

NOTE:  "FAIR" INDICATES FEW OR NO CLOUDS BELOW 12,000 FEET WITH NO
SIGNIFICANT WEATHER AND/OR OBSTRUCTIONS TO VISIBILITY.

KSZ001>006-013>018-027>032-041>047-060700-
NORTHWEST KANSAS

CITY           SKY/WX    TMP DP  RH WIND       PRES   REMARKS
GOODLAND       CLEAR     27  21  78 W12       30.28F WCI  17
6HR MIN TEMP:  26; 6HR MAX TEMP:  43;

HAYS           CLEAR     27   9  46 SW8       30.30F
HILL CITY      CLEAR     29  12  49 W9        30.28F
6HR MIN TEMP:  29; 6HR MAX TEMP:  46;

RUSSELL        FAIR      28  15  58 S10       30.29F WCI  19
6HR MIN TEMP:  28; 6HR MAX TEMP:  43;

$$

KSZ061>065-074>080-084>089-060700-
SOUTHWEST KANSAS

CITY           SKY/WX    TMP DP  RH WIND       PRES   REMARKS
DODGE CITY     CLEAR     29  16  58 SW9       30.33F
6HR MIN TEMP:  28; 6HR MAX TEMP:  45;

ELKHART          N/A     33  19  56 SW9         N/A
GARDEN CITY    CLEAR     27  19  72 S7        30.31F
6HR MIN TEMP:  26; 6HR MAX TEMP:  41;

GREAT BEND     CLEAR     30  18  59 S12       30.33F WCI  21
LIBERAL        CLEAR     30  19  64 S10       30.34S WCI  21
PRATT          CLEAR     30  23  74 S14       30.37F WCI  20
$$

KSZ066>073-081>083-090>101-060700-
SOUTHEAST KANSAS

CITY           SKY/WX    TMP DP  RH WIND       PRES   REMARKS
CHANUTE        CLEAR     27  19  72 S10       30.47F WCI  17
6HR MIN TEMP:  23; 6HR MAX TEMP:  36;

COFFEYVILLE    CLEAR     26  17  68 S5        30.51S
6HR MIN TEMP:  25; 6HR MAX TEMP:  39;

HUTCHINSON     CLEAR     32  21  64 S13       30.37F WCI  22
6HR MIN TEMP:  30; 6HR MAX TEMP:  43;

MEDICINE LODGE   N/A     28  21  75 SE6       30.40F
NEWTON         CLEAR     30  18  59 S12       30.40F WCI  21
PARSONS        CLEAR     28  18  66 S5        30.50F
6HR MIN TEMP:  27; 6HR MAX TEMP:  39;

WICHITA INTL   PTCLDY    31  19  61 S14       30.41F WCI  21
6HR MIN TEMP:  30; 6HR MAX TEMP:  42;

WICHITA JABRA  CLEAR     32  19  58 S13       30.41F WCI  22
6HR MIN TEMP:  30; 6HR MAX TEMP:  41;

WICHITA MCCONL PTCLDY    32  18  56 S14       30.41F WCI  22
WINFIELD       MOCLDY    33  19  56 S12       30.46F WCI  24
6HR MIN TEMP:  30; 6HR MAX TEMP:  40;

$$

KSZ007>012-019>026-033>040-048>060-102>105-060700-
NORTHEAST KANSAS

CITY           SKY/WX    TMP DP  RH WIND       PRES   REMARKS
CONCORDIA      CLEAR     32  16  51 S20G29    30.29F WCI  20
6HR MIN TEMP:  30; 6HR MAX TEMP:  36;

EMPORIA        CLEAR     25  18  74 S13       30.40F WCI  14
6HR MIN TEMP:  24; 6HR MAX TEMP:  33;

LAWRENCE       CLEAR     24  14  65 S10       30.44F WCI  14
6HR MIN TEMP:  20; 6HR MAX TEMP:  30;

MANHATTAN      CLEAR     26  17  68 SW8       30.37F
6HR MIN TEMP:  25; 6HR MAX TEMP:  38;

MARYSVILLE     FAIR      27  18  69 S8        30.33F
OLATHE IND     CLEAR     23  13  65 SE10      30.44F WCI  12
6HR MIN TEMP:  22; 6HR MAX TEMP:  30;

OLATHE EXE     CLEAR     24  13  62 S14       30.43F WCI  12
6HR MIN TEMP:  23; 6HR MAX TEMP:  30;

SALINA         CLEAR     31  19  61 S9        30.35F
6HR MIN TEMP:  25; 6HR MAX TEMP:  40;

TOPEKA BILLARD CLEAR     26  14  60 S8        30.42F
6HR MIN TEMP:  26; 6HR MAX TEMP:  34;

TOPEKA FORBES  CLEAR     26  15  63 S10       30.40F WCI  16
6HR MIN TEMP:  25; 6HR MAX TEMP:  34;

$$



USA.gov is the U.S. government's official web portal to all federal, state and local government web resources and services.